Regional Weather Roundup
Issued by NWS

Home | Current Version | Previous Version | Graphics & Text | Print | Product List | Glossary On
Versions: 1 2 3 4 5 6 7 8 9 10 11 12 13 14 15 16 17 18 19 20 21 22 23 24 25 26 27 28 29 30 31 32 33 34 35 36 37 38 39 40 41 42 43 44 45 46 47 48 49 50
114
ASUS43 KLMK 111210
RWRKY
KENTUCKY REGIONAL WEATHER ROUNDUP
NATIONAL WEATHER SERVICE LOUISVILLE KY
700 AM EST SUN DEC 11 2016

NOTE "FAIR" INDICATES FEW OR NO CLOUDS BELOW 12,000 FEET
WITH NO SIGNIFICANT WEATHER AND/OR OBSTRUCTIONS TO VISIBILITY.

KYZ001>023-026-027-061>063-070>075-111300-
WESTERN AND SOUTH CENTRAL KENTUCKY

CITY           SKY/WX    TMP DP  RH WIND       PRES   REMARKS
PADUCAH        CLOUDY    41  16  36 S9G18     30.15F
HENDERSON      CLOUDY    37  18  44 S13       30.17F WCI  29
OWENSBORO      CLOUDY    36  20  52 SE8       30.21F WCI  30
HOPKINSVILLE   CLOUDY    39  14  36 S10       30.22F WCI  32
BOWLING GREEN  CLOUDY    37  17  44 S9        30.27S WCI  30
GLASGOW        CLOUDY    33  18  53 S5        30.27R WCI  29
$$

KYZ024-025-028>034-038-045-046-053-111300-
NORTH CENTRAL KENTUCKY

CITY           SKY/WX    TMP DP  RH WIND       PRES   REMARKS
LOUISVILLE/SDF CLOUDY    33  16  49 SE7       30.26F WCI  27
LOUISVILLE/LOU CLOUDY    33  18  53 SE5       30.27F WCI  29
FORT KNOX      CLOUDY    33  18  55 E5        30.24R WCI  28
$$

KYZ035>037-039>044-047>052-055>060-089>105-111300-
NORTHEAST KENTUCKY

CITY           SKY/WX    TMP DP  RH WIND       PRES   REMARKS
LEXINGTON      CLOUDY    32  15  49 SE10      30.28F WCI  24
COVINGTON      CLOUDY    30  18  60 SE9       30.27F WCI  22
FRANKFORT      CLOUDY    32  17  54 SE5       30.26F WCI  27
$$

KYZ054-064>069-076>088-106>120-111300-
SOUTHEAST KENTUCKY

CITY           SKY/WX    TMP DP  RH WIND       PRES   REMARKS
JACKSON        MOCLDY    29  15  56 S3        30.30S
LONDON         PTCLDY    26  14  60 S3        30.29F
SOMERSET       PTCLDY    23  18  80 S6        30.31F WCI  16
MIDDLESBORO    CLOUDY    21  19  93 CALM      30.36R
MONTICELLO     NOT AVBL
$$





USA.gov is the U.S. government's official web portal to all federal, state and local government web resources and services.